Starlink 32519

operational
NORAD ID: 62317 Int'l Des: 2024-239 Owner: SPXS Country: US Constellation: starlink
LEOCIRCULAR

Über Starlink 32519

Beschreibung wird geladen...

Live-Position

3D-Globus wird geladen...

Nächste Überflüge

Höhenverlauf

Altitude vs Time

uPlot chart will show altitude changes over time

Zweizeiliger Elementsatz

1 62317U 24239S 25353.97489301 .00014139 00000-0 48849-3 0 9992
2 62317 53.1561 191.0875 0001054 97.6062 262.5058 15.30205893 57368
Epoch: 19. Dez. 2025 • Age: 15 hours

Aktueller Status

Höhe 475.0 km
Geschwindigkeit 7.63 km/s
Subsatellitenpunkt 9.97°N, 57.76°E
Startdatum 13. Dez. 2024
Alter 1 years
Typ internet

Technische Details

Klassifizierung Payload
Masse 730.00 kg
Trockenmasse 700.00 kg
Gesamtmasse 730.00 kg
Länge 0.30 m
Durchmesser 4.10 m
Spannweite 29.00 m
Form Box + pan
Hersteller SPXS
Bus-Typ Starlink V2M
Phasenstatus In Orbit
Besitzer/Staat SPXS/US

Große Konstellationen

Loading constellations...